Location: Gradaro
(45.0833°N, 10.8833°E)
Time: 21:41:12
(UTC+00:00)

Meteor 2-3 Rocket - Pass Details

Date: 29 November 2020
Orbit: 842 x 885 km, 81.2° (Epoch: 21 January)

Event Time Altitude Azimuth Distance (km) Brightness Sun altitude
Rises 05:06:39 0° 220° (SW) 3,442 6.6 -14.8°
Reaches altitude 10° 05:09:22 10° 232° (SW) 2,516 5.8 -14.3°
Maximum altitude 05:14:19 30° 291° (WNW) 1,541 4.5 -13.5°
Drops below altitude 10° 05:19:21 10° 352° (N) 2,551 5.9 -12.6°
Sets 05:22:09 0° 3° (N) 3,498 6.7 -12.2°
